Previsão horária em Ploski

Hoje, 6 Março, Sábado

Tempo Temperatura Precipitação Vento Pressão Humidade
00:00 -12°C° 0 mm 2 m/s 748 mmHg 92%
01:00 -12°C° 0 mm 2 m/s 748 mmHg 93%
02:00 -12°C° 0 mm 2 m/s 749 mmHg 94%
03:00 -12°C° 0 mm 2 m/s 748 mmHg 95%
04:00 -12°C° 0 mm 2 m/s 748 mmHg 95%
05:00 -12°C° 0 mm 2 m/s 748 mmHg 95%
06:00 -10°C° 0.1 mm 2 m/s 749 mmHg 94%
07:00 -9°C° 0.1 mm 2 m/s 749 mmHg 92%
08:00 -10°C° 0.1 mm 3 m/s 749 mmHg 90%
09:00 -9°C° 0.1 mm 3 m/s 749 mmHg 85%
10:00 -8°C° 0.1 mm 3 m/s 749 mmHg 80%
11:00 -7°C° 0.1 mm 3 m/s 749 mmHg 75%
12:00 -7°C° 0.1 mm 3 m/s 749 mmHg 73%
13:00 -7°C° 0.1 mm 3 m/s 748 mmHg 70%
14:00 -7°C° 0.1 mm 3 m/s 748 mmHg 67%
15:00 -7°C° 0 mm 2 m/s 748 mmHg 72%
16:00 -7°C° 0 mm 2 m/s 747 mmHg 76%
17:00 -7°C° 0 mm 1 m/s 747 mmHg 81%
18:00 -9°C° 0 mm 2 m/s 747 mmHg 83%
19:00 -9°C° 0 mm 2 m/s 746 mmHg 85%
20:00 -12°C° 0 mm 3 m/s 746 mmHg 87%
21:00 -10°C° 0 mm 3 m/s 745 mmHg 86%
22:00 -11°C° 0 mm 4 m/s 744 mmHg 84%
23:00 -11°C° 0 mm 4 m/s 743 mmHg 82%

Amanhã, 7 Março, Domingo

Tempo Temperatura Precipitação Vento Pressão Humidade
00:00 -11°C° 0.1 mm 5 m/s 742 mmHg 85%
01:00 -11°C° 0.1 mm 6 m/s 741 mmHg 88%
02:00 -10°C° 0.1 mm 6 m/s 740 mmHg 91%
03:00 -10°C° 0.6 mm 6 m/s 738 mmHg 92%
04:00 -9°C° 0.6 mm 6 m/s 737 mmHg 92%
05:00 -9°C° 0.6 mm 7 m/s 736 mmHg 92%
06:00 -8°C° 0.4 mm 7 m/s 734 mmHg 92%
07:00 -8°C° 0.4 mm 7 m/s 733 mmHg 92%
08:00 -7°C° 0.4 mm 7 m/s 732 mmHg 91%
09:00 -7°C° 0.7 mm 7 m/s 732 mmHg 91%
10:00 -6°C° 0.7 mm 7 m/s 731 mmHg 91%
11:00 -6°C° 0.7 mm 7 m/s 731 mmHg 91%
12:00 -7°C° 0.3 mm 7 m/s 731 mmHg 81%
13:00 -7°C° 0.3 mm 7 m/s 731 mmHg 70%
14:00 -8°C° 0.3 mm 7 m/s 732 mmHg 59%
15:00 -9°C° 0 mm 6 m/s 732 mmHg 66%
16:00 -8°C° 0 mm 4 m/s 732 mmHg 72%
17:00 -8°C° 0 mm 3 m/s 732 mmHg 78%
18:00 -8°C° 0.3 mm 3 m/s 732 mmHg 81%
19:00 -8°C° 0.3 mm 3 m/s 732 mmHg 85%
20:00 -7°C° 0.3 mm 3 m/s 732 mmHg 89%
21:00 -8°C° 0.2 mm 3 m/s 732 mmHg 91%
22:00 -8°C° 0.2 mm 3 m/s 732 mmHg 92%
23:00 -7°C° 0.2 mm 2 m/s 732 mmHg 94%

Depois de amanhã, 8 Março, Segunda-feira

Tempo Temperatura Precipitação Vento Pressão Humidade
00:00 -9°C° 0.4 mm 3 m/s 732 mmHg 93%
01:00 -9°C° 0.4 mm 3 m/s 732 mmHg 93%
02:00 -10°C° 0.4 mm 3 m/s 732 mmHg 93%
03:00 -12°C° 0.1 mm 3 m/s 732 mmHg 91%
04:00 -12°C° 0.1 mm 3 m/s 732 mmHg 90%
05:00 -13°C° 0.1 mm 3 m/s 733 mmHg 89%
06:00 -14°C° 0 mm 4 m/s 733 mmHg 87%
07:00 -14°C° 0 mm 4 m/s 734 mmHg 86%
08:00 -14°C° 0 mm 5 m/s 735 mmHg 85%
09:00 -13°C° 0.1 mm 5 m/s 735 mmHg 85%
10:00 -12°C° 0.1 mm 5 m/s 736 mmHg 85%
11:00 -11°C° 0.1 mm 5 m/s 737 mmHg 86%
12:00 -11°C° 0.1 mm 5 m/s 737 mmHg 85%
13:00 -11°C° 0.1 mm 5 m/s 738 mmHg 84%
14:00 -11°C° 0.1 mm 5 m/s 739 mmHg 83%
15:00 -11°C° 0.1 mm 5 m/s 740 mmHg 84%
16:00 -11°C° 0.1 mm 4 m/s 740 mmHg 85%
17:00 -12°C° 0.1 mm 4 m/s 741 mmHg 86%
18:00 -12°C° 0 mm 4 m/s 741 mmHg 88%
19:00 -13°C° 0 mm 3 m/s 742 mmHg 90%
20:00 -13°C° 0 mm 3 m/s 743 mmHg 92%
21:00 -14°C° 0 mm 3 m/s 743 mmHg 92%
22:00 -15°C° 0 mm 3 m/s 744 mmHg 92%
23:00 -16°C° 0 mm 3 m/s 744 mmHg 92%

9 Março, Terça-feira

Tempo Temperatura Precipitação Vento Pressão Humidade
00:00 -17°C° 0 mm 3 m/s 745 mmHg 93%
01:00 -18°C° 0 mm 3 m/s 746 mmHg 94%
02:00 -19°C° 0 mm 3 m/s 746 mmHg 95%
03:00 -21°C° 0 mm 3 m/s 747 mmHg 95%
04:00 -20°C° 0 mm 2 m/s 747 mmHg 96%
05:00 -20°C° 0 mm 2 m/s 747 mmHg 96%
06:00 -20°C° 0 mm 2 m/s 748 mmHg 94%
07:00 -22°C° 0 mm 3 m/s 748 mmHg 93%
08:00 -22°C° 0 mm 3 m/s 749 mmHg 91%
09:00 -21°C° 0 mm 3 m/s 749 mmHg 88%
10:00 -18°C° 0 mm 2 m/s 749 mmHg 85%
11:00 -16°C° 0 mm 2 m/s 749 mmHg 82%
12:00 -16°C° 0 mm 2 m/s 750 mmHg 80%
13:00 -15°C° 0 mm 2 m/s 750 mmHg 78%
14:00 -14°C° 0 mm 2 m/s 750 mmHg 76%
15:00 -15°C° 0 mm 2 m/s 750 mmHg 80%
16:00 -13°C° 0 mm 1 m/s 750 mmHg 84%
17:00 -14°C° 0 mm 1 m/s 750 mmHg 87%
18:00 -15°C° 0 mm 1 m/s 750 mmHg 89%
19:00 -16°C° 0 mm 1 m/s 750 mmHg 91%
20:00 -16°C° 0 mm 1 m/s 750 mmHg 93%
21:00 -17°C° 0 mm 1 m/s 750 mmHg 93%
22:00 -20°C° 0 mm 2 m/s 750 mmHg 94%
23:00 -20°C° 0 mm 2 m/s 750 mmHg 95%

10 Março, Quarta-feira

Tempo Temperatura Precipitação Vento Pressão Humidade
00:00 -21°C° 0 mm 2 m/s 751 mmHg 95%
01:00 -23°C° 0 mm 2 m/s 751 mmHg 96%
02:00 -24°C° 0 mm 2 m/s 751 mmHg 96%
03:00 -25°C° 0 mm 2 m/s 751 mmHg 97%
04:00 -26°C° 0 mm 2 m/s 751 mmHg 97%
05:00 -27°C° 0 mm 2 m/s 752 mmHg 98%
06:00 -26°C° 0 mm 2 m/s 752 mmHg 96%
07:00 -26°C° 0 mm 2 m/s 753 mmHg 94%
08:00 -25°C° 0 mm 2 m/s 754 mmHg 92%
09:00 -24°C° 0 mm 2 m/s 754 mmHg 89%
10:00 -21°C° 0 mm 2 m/s 754 mmHg 85%
11:00 -20°C° 0 mm 2 m/s 755 mmHg 81%
12:00 -19°C° 0 mm 2 m/s 755 mmHg 80%
13:00 -18°C° 0 mm 2 m/s 755 mmHg 78%
14:00 -18°C° 0 mm 2 m/s 755 mmHg 77%
15:00 -19°C° 0 mm 2 m/s 755 mmHg 81%
16:00 -19°C° 0 mm 2 m/s 755 mmHg 85%
17:00 -20°C° 0 mm 2 m/s 755 mmHg 90%
18:00 -20°C° 0 mm 1 m/s 755 mmHg 91%
19:00 -21°C° 0 mm 1 m/s 756 mmHg 93%
20:00 -22°C° 0 mm 1 m/s 756 mmHg 94%
21:00 -22°C° 0 mm 1 m/s 756 mmHg 94%
22:00 -23°C° 0 mm 1 m/s 756 mmHg 94%
23:00 -23°C° 0 mm 1 m/s 756 mmHg 94%

11 Março, Quinta-feira

Tempo Temperatura Precipitação Vento Pressão Humidade
00:00 -24°C° 0 mm 1 m/s 756 mmHg 94%
01:00 -24°C° 0 mm 0 m/s 757 mmHg 94%
02:00 -25°C° 0 mm 0 m/s 757 mmHg 94%
03:00 -25°C° 0 mm 0 m/s 757 mmHg 94%
04:00 -25°C° 0 mm 0 m/s 757 mmHg 94%
05:00 -25°C° 0 mm 0 m/s 757 mmHg 94%
06:00 -23°C° 0 mm 0 m/s 757 mmHg 92%
07:00 -22°C° 0 mm 1 m/s 757 mmHg 90%
08:00 -21°C° 0 mm 1 m/s 757 mmHg 87%
09:00 -19°C° 0 mm 1 m/s 757 mmHg 83%
10:00 -19°C° 0 mm 2 m/s 757 mmHg 79%
11:00 -17°C° 0 mm 2 m/s 756 mmHg 75%
12:00 -16°C° 0 mm 2 m/s 756 mmHg 73%
13:00 -16°C° 0 mm 3 m/s 756 mmHg 71%
14:00 -15°C° 0 mm 3 m/s 755 mmHg 70%
15:00 -15°C° 0 mm 3 m/s 755 mmHg 74%
16:00 -16°C° 0 mm 3 m/s 754 mmHg 78%
17:00 -17°C° 0 mm 3 m/s 753 mmHg 82%
18:00 -19°C° 0 mm 4 m/s 753 mmHg 84%
19:00 -19°C° 0 mm 4 m/s 752 mmHg 85%
20:00 -20°C° 0 mm 4 m/s 752 mmHg 86%
21:00 -21°C° 0 mm 5 m/s 751 mmHg 83%
22:00 -21°C° 0 mm 5 m/s 750 mmHg 79%
23:00 -21°C° 0 mm 5 m/s 750 mmHg 75%
Mostrar mais

Necessitamos do seu Consentimento

A Meteoprog e os seus Fornecedores de Serviços podem armazenar e aceder a dados pessoais como cookies, identificadores do dispositivo ou outras tecnologias semelhantes existentes no seu dispositivo e processar estes dados para personalizar conteúdos e anúncios, assim como funcionalidades nas redes sociais e análise de tráfego.

  • Armazenar e/ou aceder a informações no seu dispositivo

    Os cookies, identificadores do dispositivo ou outras informações podem ser armazenados ou acedidos no seu dispositivo, para os fins acima indicados.

  • Anúncios e conteúdos personalizados, medição de anúncios e conteúdos, dados sobre o público-alvo e desenvolvimento de produtos

    Os anúncios e os conteúdos podem ser personalizados com base num perfil. Podem ser adicionados dados adicionais para uma maior personalização dos anúncios e dos conteúdos. A eficácia dos anúncios e dos conteúdos pode ser medida. Podem ser obtidas informações sobre o público que visualizou os anúncios e os conteúdos. Estes dados podem ser usados para desenvolver ou melhorar sistemas, softwares ou a experiência do utilizador.

Ao clicar em "Eu concordo”, permitirá o uso de cookies, identificadores do dispositivo e web beacons mencionados ou outras tecnologias semelhantes. As configurações do navegador do seu dispositivo podem ser alteradas.

Para certos fins, podem ser invocados interesses legítimos ao invés de consentimento. Pode ler mais informação sobre este assunto na nossa Política de Privacidade e Cookies.